星链-5872 (STARLINK-5872 )

导读

STARLINK-5872是由美国于2023年7月7日发射的星链卫星,归属于SpaceX公司的星链互联网星座项目。星链项目旨在为全球提供高速低延迟宽带互联网覆盖,该卫星加入星座后,进一步扩充了星链低轨卫星网络的规模,增强了星座的服务能力,助力全球网络覆盖建设推进。

Basic Information
目录编号:
57232
目录名称:
STARLINK-5872
国际标识:
2023-094Q
轨道中心:
EARTH
卫星名称:
星链-5872
卫星全名:
星链-5872 (STARLINK-5872 )
卫星状态:
在轨 (已飞行1162 天)
发射日期:
2023-07-07 UTC
国别 :
美国 (US)
星等 :
--
This satellite is enrolled in the Space Conjunction Data Service (SCDS) and the current flight risk assessment level is: No High Risk
Orbit Information
数据来源 国际轨道数据 AOE轨道数据
星历时间 2026-09-10T12:56:23+0800
1天前
查看轨道信息
2026-09-10T23:00:00+0800
17小时前
查看轨道信息
半长轴 6861.217km 6861.196km
偏心率 0.000111 0.0001851
轨道倾角 43.005° 43.004°
近地点辐角 243.267° 263.830°
升交点赤经 68.761° 66.396°
平近点角 116.807° 244.106°
近地点 482.318km 481.788km
远地点 483.842km 484.33km
周期 94.267分钟 94.267分钟
每日圈数 15.2757 15.275769
Detailed Information
固有亮度:
5
最大亮度:
2.4
卫星平台:
Starlink v1.5
覆盖范围:
全球
运营商:
太空探索技术公司
运营商所在国:
美国
制造商(研发单位):
太空探索技术公司
制造商所在国:
美国
使用方式:
暂无
Satellite Introduction
星链(Starlink)计划是由太空探索技术公司(SpaceX)提出的一个巨型低轨卫星互联网星座项目,计划在2019年至2024年间在太空搭建由约1.2万颗卫星组成的“星链”网络,其中1584颗将部署在地球上空550千米处的近地轨道,并从2020年开始工作。该卫星仍在工作。
2D Orbit Map
3D Orbit Map
Orbit Altitude Analysis Chart
Orbit Inclination Analysis Chart
Orbit Comprehensive Analysis Chart
View Comprehensive Chart
Conjunction Data List
Event ID Objects TCA Miss Dist (km) Collision Risk Probability Collision Risk Index (CRI) Action
CDM_260913-021805-723206-649921
2026-09-13T
02:18:55+0000
1.340 km
极远距离
3.73339E-6 低风险 0.46
CDM_260913-061405-723206-649921
2026-09-13T
06:14:18+0000
1.530 km
极远距离
2.459434E-6 低风险 0.43
CDM_260913-052805-723206-365421
2026-09-13T
05:28:39+0000
1.438 km
极远距离
2.297395E-6 低风险 0.42
CDM_260912-092105-723206-470721
2026-09-12T
09:21:52+0000
2.655 km
极远距离
1.417177E-6 低风险 0.38
CDM_260912-231305-321805-723221
2026-09-12T
23:13:37+0000
2.636 km
极远距离
1.414677E-6 低风险 0.38
CDM_260913-044005-723206-649921
2026-09-13T
04:40:09+0000
2.365 km
极远距离
8.527766E-7 极低风险 0.34
CDM_260913-004405-723206-649921
2026-09-13T
00:44:46+0000
2.678 km
极远距离
7.024228E-7 极低风险 0.32
CDM_260913-035405-723206-365421
2026-09-13T
03:54:30+0000
2.432 km
极远距离
6.519274E-7 极低风险 0.31
Miss Distance Evolution Trend with All Objects
Collision Probability Evolution Trend with All Objects